Location: Newark
(50.8086°N, 4.3114°E)
Time: 10:56:17
(UTC+00:00)

XW-2D - Pass Details

Date: 30 January 2020
Orbit: 507 x 528 km, 97.5° (Epoch: 26 February)

Event Time Altitude Azimuth Distance (km) Brightness Sun altitude
Rises 06:09:33 0° 10° (N) 2,631 ? -11.6°
Reaches altitude 10° 06:11:41 10° 6° (N) 1,738 ? -11.3°
Maximum altitude 06:15:21 57° 288° (WNW) 608 ? -10.7°
Drops below altitude 10° 06:18:59 10° 209° (SSW) 1,721 ? -10.2°
Sets 06:21:05 0° 205° (SSW) 2,602 ? -9.8°
